Location: Larrial
(48.2758°N, 4.5331°W)
Time: 16:00:26
(UTC+00:00)

AAUSAT CUBESAT 2 - Pass Details

Date: 30 November 2021
Orbit: 572 x 586 km, 97.5° (Epoch: 16 January)

Event Time Altitude Azimuth Distance (km) Brightness Sun altitude
Rises 05:07:49 0° 18° (NNE) 2,795 ? -25.7°
Reaches altitude 10° 05:10:04 10° 25° (NNE) 1,893 ? -25.3°
Maximum altitude 05:13:59 44° 98° (E) 806 ? -24.6°
Drops below altitude 10° 05:17:55 10° 172° (S) 1,885 ? -24.0°
Sets 05:20:08 0° 178° (S) 2,781 ? -23.6°
